Regional Weather Roundup
Issued by NWS Huntsville, AL

Home | Current Version | Previous Version | Text Only | Print | Product List | Glossary On
Versions: 1 2 3 4 5 6 7 8 9 10 11 12 13 14 15 16 17 18 19 20 21 22 23 24 25 26 27 28 29 30 31 32 33 34 35 36 37 38 39 40 41 42 43 44 45 46 47 48 49 50
000
ASUS44 KHUN 172310
RWRHUN

WEATHER ROUNDUP FOR THE TENNESSEE VALLEY
NATIONAL WEATHER SERVICE HUNTSVILLE AL
600 PM CDT WED SEP 17 2014

ALZ001>004-180000-
NORTHWEST ALABAMA

CITY           SKY/WX    TMP DP  RH WIND       PRES   REMARKS
COURTLAND HCN    N/A     75 N/A N/A CALM        N/A
RUSSELLVILLE     N/A     73 N/A N/A MISG        N/A
SHOALS AIRPORT CLOUDY    73  61  65 NW5       29.95S
SHOALS TVA RES   N/A     75 N/A N/A MISG        N/A
$$

ALZ005>007-016-180000-
NORTH CENTRAL ALABAMA

CITY           SKY/WX    TMP DP  RH WIND       PRES   REMARKS
DECATUR AP     MOCLDY    75  50  41 NE7       29.95S
HUNTSVILLE AP  MOCLDY    77  52  41 N5        29.95S
HUN NWS/UAH      N/A     75  46  35 NE5         N/A
MERIDIANVILLE  PTCLDY    73  46  38 N5        29.96S
VINEMONT AP    FAIR      78  50  37 N3        29.97F
$$

ALZ008>010-180000-
NORTHEAST ALABAMA

CITY           SKY/WX    TMP DP  RH WIND       PRES   REMARKS
ALBERTVILLE    PTCLDY    73  61  64 N8        29.95S
FORT PAYNE     CLEAR     73  50  43 N6        29.95R
SCOTTSBORO AP  CLEAR     75  59  57 N5        29.96S
SCOTTSBORO HCN   N/A     75 N/A N/A MISG        N/A
VALLEY HEAD      N/A     70 N/A N/A MISG        N/A
$$

TNZ076-096-097-180000-
SOUTHEASTERN MIDDLE TENNESSEE

CITY           SKY/WX    TMP DP  RH WIND       PRES   REMARKS
FAYETTEVILLE   CLEAR     70  54  56 NE5       29.96F
TULLAHOMA      CLEAR     70  54  56 NE5       29.99S
WINCHESTER     CLEAR     72  55  56 N6        29.98S
$$

...SURROUNDING SITES...

CITY           SKY/WX    TMP DP  RH WIND       PRES   REMARKS
ATLANTA        MOCLDY    80  59  48 N13       29.91R
ANNISTON       PTCLDY    82  58  43 W8        29.92S
BIRMINGHAM     PTCLDY    81  60  48 N8        29.95S
CHATTANOOGA    MOCLDY    76  56  49 NE9       29.94F
CORINTH        PTSUNNY   75  63  64 NW5       29.96R
DALTON         CLEAR     72  59  64 CALM      29.94F
GADSDEN        CLEAR     79  50  36 N9        29.93S
GOLDEN TRNGL   MOSUNNY   84  66  54 N5        29.93F
HALEYVILLE     FAIR      76  62  61 CALM      29.97F
JACKSON TN     CLOUDY    69  61  75 CALM      29.98R
LEWISBURG      FAIR      69  59  70 E5        29.94F
MEMPHIS        CLOUDY    73  61  65 S5        29.94F
MURFREESBORO   FAIR      69  53  56 E3        29.97F
NASHVILLE      MOCLDY    70  57  63 SE6       29.95F
OXFORD MS      PTSUNNY   75  66  73 CALM      29.98S
ROME           CLEAR     78  57  48 N7        29.92S
SAVANNAH       SUNNY     72  55  56 N5        29.97S
TUPELO         MOSUNNY   79  65  62 NW3       29.95R
TUSCALOOSA     SUNNY     85  65  51 N9        29.91F
$$

...GULF COAST WEATHER...

CITY           SKY/WX    TMP DP  RH WIND       PRES   REMARKS
GULFPORT       MOSUNNY   85  72  65 S7        29.89R HX  91
PASCAGOULA     PTSUNNY   84  73  69 S8        29.90R HX  90
MOBILE         MOSUNNY   84  74  71 S8        29.90R HX  91
GULF SHORES    CLEAR     83  73  72 SW6       29.89R
PENSACOLA      PTSUNNY   83  73  72 SW7       29.88S
DESTIN         CLEAR     85  73  67 SW7       29.87F HX  91
PANAMA CITY    PTCLDY    84  76  78 SW8       29.87S HX  92
APPALACHICOLA  CLEAR     85  71  63 SW5       29.87S HX  90
$$




USA.gov is the U.S. government's official web portal to all federal, state and local government web resources and services.